FW9534 Weather Reports


time (UTC)temp
F
wind
direction
speed
knots
gust
knots
rain 1hr
in
rain 24hr
in
rain mn
in
humidity
%
barometer
mb
20260504044537 49 250 4.3 9.6 0.00 0.00 0.00 57 1009.1
20260504043040 49 223 1.7 9.6 0.00 0.00 0.00 58 1009.2
20260504041541 49 207 0.9 8.7 0.00 0.00 0.00 58 1009.2
20260504040041 49 207 1.7 7.0 0.00 0.00 0.00 59 1009.2
20260504034543 50 300 1.7 9.6 0.00 0.00 0.00 57 1009.2
20260504033050 50 243 1.7 8.7 0.00 0.00 0.00 57 1009.2
20260504031538 50 239 0.0 5.2 0.00 0.00 0.00 56 1009.2
20260504030106 51 231 1.7 9.6 0.00 0.00 0.00 55 1009.2
20260504024544 51 226 3.5 10.4 0.00 0.00 0.00 54 1009.2
20260504023038 52 191 1.7 7.8 0.00 0.00 0.00 53 1009.3
20260504021537 52 231 3.5 11.3 0.00 0.00 0.00 53 1009.5
20260504020037 52 194 3.5 11.3 0.00 0.00 0.00 52 1009.7
20260504014539 52 213 4.3 13.0 0.00 0.00 0.00 52 1009.5
20260504013041 52 238 4.3 10.4 0.00 0.00 0.00 52 1009.7
20260504011538 52 239 3.5 11.3 0.00 0.00 0.00 50 1009.7
20260504010040 52 0 2.6 14.8 0.00 0.00 0.00 49 1009.4
20260504004540 52 169 3.5 13.0 0.00 0.00 0.00 50 1009.5
20260504003042 52 215 5.2 21.7 0.00 0.00 0.00 52 1009.9
20260504001537 53 265 4.3 14.8 0.00 0.00 0.00 48 1009.8
20260504000047 53 246 4.3 20.9 0.00 0.00 0.00 47 1009.8
20260503234540 52 217 5.2 12.2 0.00 0.00 0.00 47 1009.6
20260503233040 52 230 6.1 16.5 0.00 0.00 0.00 47 1009.4
20260503231538 52 275 5.2 13.0 0.00 0.00 0.00 47 1009.5
20260503230038 53 316 7.0 23.5 0.00 0.00 0.00 46 1009.8
20260503224537 53 272 4.3 13.9 0.00 0.00 0.00 46 1010.0
20260503223041 53 194 6.1 18.2 0.00 0.00 0.00 47 1009.5
20260503221541 54 252 6.1 17.4 0.00 0.00 0.00 43 1009.4
20260503220038 55 238 6.1 14.8 0.00 0.00 0.00 42 1009.3
20260503214538 55 303 3.5 12.2 0.00 0.00 0.00 42 1009.3
20260503213037 56 306 3.5 16.5 0.00 0.00 0.00 42 1009.2
20260503211537 56 289 5.2 16.5 0.00 0.00 0.00 41 1009.0
20260503210040 56 240 5.2 18.2 0.00 0.00 0.00 42 1008.9
20260503204543 56 207 5.2 15.6 0.00 0.00 0.00 39 1009.0
20260503203043 56 273 3.5 12.2 0.00 0.00 0.00 42 1009.2
20260503201539 56 312 4.3 13.9 0.00 0.00 0.00 39 1009.3
20260503200038 55 260 3.5 11.3 0.00 0.00 0.00 41 1009.4
20260503194538 54 248 7.0 14.8 0.00 0.00 0.00 41 1009.7
20260503193042 54 244 4.3 10.4 0.00 0.00 0.00 42 1009.9
20260503191539 53 272 2.6 9.6 0.00 0.00 0.00 44 1010.0
20260503190038 53 259 3.5 13.0 0.00 0.00 0.00 42 1010.3
20260503184556 52 279 3.5 16.5 0.00 0.00 0.00 45 1010.6
20260503183037 52 258 3.5 13.0 0.00 0.00 0.00 43 1010.8
20260503181537 51 163 2.6 16.5 0.00 0.00 0.00 43 1011.2
20260503180039 51 314 2.6 9.6 0.00 0.00 0.00 47 1011.2
20260503174536 50 264 3.5 12.2 0.00 0.00 0.00 43 1011.6
20260503173038 50 275 3.5 13.0 0.00 0.00 0.00 46 1011.6
20260503171602 49 256 4.3 12.2 0.00 0.00 0.00 43 1011.8
20260503081540 33 231 0.0 2.6 0.00 0.00 0.00 88 1013.0
20260503071553 34 281 0.0 2.6 0.00 0.00 0.00 87 1013.0
20260503070330 35 0 0.9 6.1 0.00 0.00 0.00 86 1013.1
20260503054544 36 0 0.9 5.2 0.00 0.00 0.00 83 1013.4
20260503053041 36 0 0.9 4.3 0.00 0.00 0.00 82 1013.4
20260503051539 36 281 0.9 6.1 0.00 0.00 0.00 82 1013.6
20260503050044 36 292 0.0 7.0 0.00 0.00 0.00 82 1013.7